EW3204 Weather Reports


time (UTC)temp
F
wind
direction
speed
knots
gust
knots
rain 1hr
in
rain 24hr
in
rain mn
in
humidity
%
barometer
mb
20260831044511 91 281 7.8 0.0 0.00 0.00 0.00 17 1005.2
20260831043011 91 274 7.0 0.0 0.00 0.00 0.00 18 1005.1
20260831041518 91 258 5.2 0.0 0.00 0.00 0.00 17 1005.0
20260831040016 91 265 7.0 0.0 0.00 0.00 0.00 18 1004.9
20260831034510 91 266 7.8 0.0 0.00 0.00 0.00 18 1004.7
20260831033018 92 273 9.6 0.0 0.00 0.00 0.00 17 1004.4
20260831031508 92 262 9.6 0.0 0.00 0.00 0.00 17 1004.1
20260831030008 93 263 11.3 0.0 0.00 0.00 0.00 17 1003.9
20260831024509 93 281 8.7 0.0 0.00 0.00 0.00 17 1003.9
20260831023011 94 270 9.6 0.0 0.00 0.00 0.00 17 1003.9
20260831021504 94 277 10.4 0.0 0.00 0.00 0.00 17 1003.6
20260831020004 95 289 8.7 0.0 0.00 0.00 0.00 17 1003.7
20260831014503 96 292 8.7 0.0 0.00 0.00 0.00 17 1003.6
20260831013002 98 277 9.6 0.0 0.00 0.00 0.00 16 1003.5
20260831011600 99 279 8.7 0.0 0.00 0.00 0.00 16 1003.4
20260831010117 99 260 9.6 0.0 0.00 0.00 0.00 17 1003.2
20260831004607 100 243 8.7 0.0 0.00 0.00 0.00 17 1003.1
20260831003059 101 273 8.7 0.0 0.00 0.00 0.00 17 1003.1
20260831001558 101 228 9.6 0.0 0.00 0.00 0.00 17 1003.0
20260831000106 102 312 10.4 0.0 0.00 0.00 0.00 17 1002.8
20260830234622 102 318 10.4 0.0 0.00 0.00 0.00 16 1002.9
20260830233056 102 279 9.6 0.0 0.00 0.00 0.00 17 1002.9
20260830231556 103 263 11.3 0.0 0.00 0.00 0.00 17 1002.9
20260830231507 103 279 11.3 0.0 0.00 0.00 0.00 17 1002.9
20260830230055 104 270 9.6 0.0 0.00 0.00 0.00 16 1002.9
20260830224554 104 302 10.4 0.0 0.00 0.00 0.00 17 1003.0
20260830223053 105 272 7.8 0.0 0.00 0.00 0.00 17 1003.0
20260830221549 104 284 12.2 0.0 0.00 0.00 0.00 17 1003.3
20260830220046 103 56 5.2 0.0 0.00 0.00 0.00 16 1003.6
20260830214545 103 81 3.5 0.0 0.00 0.00 0.00 16 1003.7
20260830213055 103 77 4.3 0.0 0.00 0.00 0.00 16 1004.1
20260830211540 103 6 3.5 0.0 0.00 0.00 0.00 17 1004.3
20260830210039 103 27 4.3 0.0 0.00 0.00 0.00 17 1004.6
20260830204542 102 32 3.5 0.0 0.00 0.00 0.00 17 1004.9
20260830203036 102 322 2.6 0.0 0.00 0.00 0.00 17 1005.0
20260830201533 101 51 3.5 0.0 0.00 0.00 0.00 18 1005.3
20260830200032 101 18 4.3 0.0 0.00 0.00 0.00 18 1005.6
20260830194534 101 23 1.7 0.0 0.00 0.00 0.00 18 1005.8
20260830193033 100 337 2.6 0.0 0.00 0.00 0.00 19 1005.9
20260830191534 100 28 4.3 0.0 0.00 0.00 0.00 19 1006.2
20260830190025 99 229 1.7 0.0 0.00 0.00 0.00 19 1006.4
20260830184535 99 42 1.7 0.0 0.00 0.00 0.00 19 1006.7
20260830183021 97 47 5.2 0.0 0.00 0.00 0.00 20 1006.8
20260830181519 97 5 1.7 0.0 0.00 0.00 0.00 20 1007.0
20260830180018 97 65 2.6 0.0 0.00 0.00 0.00 20 1007.1
20260830174519 96 60 4.3 0.0 0.00 0.00 0.00 20 1007.0
20260830173019 97 58 3.5 0.0 0.00 0.00 0.00 20 1007.1
20260830171518 97 52 1.7 0.0 0.00 0.00 0.00 20 1007.0
20260830170014 97 24 0.9 0.0 0.00 0.00 0.00 21 1007.0
20260830164510 94 92 3.5 0.0 0.00 0.00 0.00 22 1007.0
20260830163009 94 108 4.3 0.0 0.00 0.00 0.00 23 1007.1
20260830161506 94 100 3.5 0.0 0.00 0.00 0.00 23 1007.0
20260830160005 93 115 3.5 0.0 0.00 0.00 0.00 24 1006.9
20260830154504 92 107 2.6 0.0 0.00 0.00 0.00 25 1006.8
20260830153002 91 90 3.5 0.0 0.00 0.00 0.00 26 1006.7
20260830151502 92 263 1.7 0.0 0.00 0.00 0.00 25 1006.7
20260830150118 91 263 0.9 0.0 0.00 0.00 0.00 26 1006.6
20260830144559 89 263 1.7 0.0 0.00 0.00 0.00 28 1006.6
20260830143100 87 291 0.9 0.0 0.00 0.00 0.00 29 1006.6
20260830141559 85 291 1.7 0.0 0.00 0.00 0.00 30 1006.5
20260830140057 86 291 1.7 0.0 0.00 0.00 0.00 30 1006.5
20260830134558 85 183 1.7 0.0 0.00 0.00 0.00 30 1006.4
20260830133055 85 183 1.7 0.0 0.00 0.00 0.00 30 1006.3
20260830131552 84 182 0.9 0.0 0.00 0.00 0.00 30 1006.1
20260830130053 86 183 2.6 0.0 0.00 0.00 0.00 29 1005.9
20260830124549 85 183 2.6 0.0 0.00 0.00 0.00 30 1005.8
20260830123049 86 182 2.6 0.0 0.00 0.00 0.00 29 1005.7
20260830121553 85 183 2.6 0.0 0.00 0.00 0.00 30 1005.6
20260830120048 85 201 3.5 0.0 0.00 0.00 0.00 29 1005.6
20260830114602 85 206 2.6 0.0 0.00 0.00 0.00 29 1005.6
20260830113044 86 185 1.7 0.0 0.00 0.00 0.00 29 1005.6
20260830111543 85 194 1.7 0.0 0.00 0.00 0.00 29 1005.6
20260830110040 86 141 1.7 0.0 0.00 0.00 0.00 29 1005.6
20260830104538 86 141 0.9 0.0 0.00 0.00 0.00 28 1005.5
20260830103036 87 141 1.7 0.0 0.00 0.00 0.00 27 1005.4
20260830101541 89 108 2.6 0.0 0.00 0.00 0.00 26 1005.2
20260830100028 90 241 5.2 0.0 0.00 0.00 0.00 25 1004.9
20260830094528 90 258 5.2 0.0 0.00 0.00 0.00 25 1004.7
20260830093029 91 273 6.1 0.0 0.00 0.00 0.00 24 1004.6
20260830091524 91 249 7.8 0.0 0.00 0.00 0.00 24 1004.5
20260830090048 91 260 7.0 0.0 0.00 0.00 0.00 24 1004.5
20260830084622 91 247 8.7 0.0 0.00 0.00 0.00 24 1004.4
20260830083036 91 252 7.8 0.0 0.00 0.00 0.00 24 1004.5
20260830081601 91 235 6.1 0.0 0.00 0.00 0.00 24 1004.6
20260830080014 92 231 7.8 0.0 0.00 0.00 0.00 23 1004.7
20260830074512 92 248 9.6 0.0 0.00 0.00 0.00 23 1004.9
20260830073012 92 241 7.0 0.0 0.00 0.00 0.00 23 1004.9
20260830071510 93 229 6.1 0.0 0.00 0.00 0.00 23 1005.1
20260830070008 93 264 4.3 0.0 0.00 0.00 0.00 23 1004.9
20260830064507 93 254 5.2 0.0 0.00 0.00 0.00 23 1004.9
20260830063007 94 237 8.7 0.0 0.00 0.00 0.00 23 1004.8
20260830061506 94 227 7.8 0.0 0.00 0.00 0.00 23 1004.8
20260830060007 94 223 7.0 0.0 0.00 0.00 0.00 23 1004.8
20260830054505 94 239 7.0 0.0 0.00 0.00 0.00 23 1004.8
20260830053006 94 231 7.8 0.0 0.00 0.00 0.00 23 1004.9
20260830051504 94 240 7.8 0.0 0.00 0.00 0.00 23 1005.0
20260830050006 94 241 7.0 0.0 0.00 0.00 0.00 23 1005.1